2019-06-13 00:08:25 r, 18.38m,0000000004Hz,0000117068c,0000000.254s, 028.6C,00002195
2019-06-13 00:18:25 r, 18.41m,0000000004Hz,0000118984c,0000000.258s, 028.6C,00002195
2019-06-13 00:28:25 r, 18.41m,0000000004Hz,0000119285c,0000000.259s, 028.6C,00002195
2019-06-13 00:38:25 r, 18.41m,0000000004Hz,0000120076c,0000000.261s, 028.3C,00002195
2019-06-13 00:48:25 r, 18.41m,0000000004Hz,0000120287c,0000000.261s, 028.3C,00002195
2019-06-13 00:58:25 r, 18.43m,0000000004Hz,0000121844c,0000000.264s, 028.3C,00002195
2019-06-13 01:08:25 r, 18.43m,0000000004Hz,0000121979c,0000000.265s, 028.3C,00002195
2019-06-13 01:18:25 r, 18.44m,0000000004Hz,0000123555c,0000000.268s, 028.3C,00002195
2019-06-13 01:28:25 r, 18.46m,0000000003Hz,0000125658c,0000000.273s, 028.3C,00002195
2019-06-13 01:38:25 r, 18.47m,0000000004Hz,0000126811c,0000000.275s, 028.0C,00002195
2019-06-13 01:48:25 r, 18.48m,0000000003Hz,0000127598c,0000000.277s, 028.0C,00002195
2019-06-13 01:58:25 r, 18.48m,0000000004Hz,0000127625c,0000000.277s, 028.0C,00002195
2019-06-13 02:08:25 r, 18.46m,0000000004Hz,0000125184c,0000000.272s, 028.0C,00002195
2019-06-13 02:18:25 r, 18.48m,0000000003Hz,0000127591c,0000000.277s, 027.7C,00002195
2019-06-13 02:28:25 r, 18.48m,0000000003Hz,0000127413c,0000000.277s, 027.7C,00002195
2019-06-13 02:38:25 r, 18.48m,0000000003Hz,0000127738c,0000000.277s, 027.7C,00002195
2019-06-13 02:48:25 r, 18.50m,0000000003Hz,0000129580c,0000000.281s, 027.7C,00002195
2019-06-13 02:58:25 r, 18.51m,0000000003Hz,0000131660c,0000000.286s, 027.3C,00002195
2019-06-13 03:08:25 r, 18.52m,0000000004Hz,0000132136c,0000000.287s, 027.3C,00002195
2019-06-13 03:18:25 r, 18.48m,0000000003Hz,0000127810c,0000000.277s, 027.3C,00002195
2019-06-13 03:28:25 r, 18.42m,0000000004Hz,0000120389c,0000000.261s, 027.3C,00002195
2019-06-13 03:38:25 r, 18.26m,0000000004Hz,0000104783c,0000000.227s, 027.0C,00002195
2019-06-13 03:48:25 r, 17.99m,0000000006Hz,0000081585c,0000000.177s, 027.0C,00002195
2019-06-13 03:58:25 r, 17.54m,0000000008Hz,0000053767c,0000000.117s, 026.7C,00002195
2019-06-13 04:08:25 r, 16.89m,0000000015Hz,0000029500c,0000000.064s, 026.7C,00002195
2019-06-13 04:18:25 r, 15.91m,0000000038Hz,0000011978c,0000000.026s, 026.7C,00002195
2019-06-13 04:28:25 r, 14.56m,0000000133Hz,0000000000c,0000000.000s, 026.4C,00002195
2019-06-13 04:38:25 r, 13.10m,0000000514Hz,0000000000c,0000000.000s, 026.4C,00002195
2019-06-13 04:48:25 r, 11.66m,0000001935Hz,0000000000c,0000000.000s, 026.4C,00002195
2019-06-13 04:58:25 r, 10.28m,0000006869Hz,0000000000c,0000000.000s, 026.1C,00002195
2019-06-13 05:08:25 r, 09.06m,0000021150Hz,0000000000c,0000000.000s, 026.1C,00002195
2019-06-13 05:18:25 r, 08.07m,0000052570Hz,0000000000c,0000000.000s, 026.1C,00002195
2019-06-13 05:28:25 r, 07.34m,0000103807Hz,0000000000c,0000000.000s, 026.1C,00002195
2019-06-13 05:38:25 r, 06.80m,0000169205Hz,0000000000c,0000000.000s, 026.4C,00002195
2019-06-13 05:48:25 r, 06.42m,0000241020Hz,0000000000c,0000000.000s, 026.1C,00002195
2019-06-13 05:58:25 r, 06.12m,0000317573Hz,0000000000c,0000000.000s, 026.4C,00002195
2019-06-13 06:08:25 r, 05.88m,0000393977Hz,0000000000c,0000000.000s, 026.4C,00002195
2019-06-13 06:18:25 r, 00.00m,0000464420Hz,0000000000c,0000000.000s, 026.7C,00002195
2019-06-13 06:28:25 r, 00.00m,0000531447Hz,0000000000c,0000000.000s, 026.7C,00002195
2019-06-13 06:38:25 r, 00.00m,0000563540Hz,0000000000c,0000000.000s, 027.0C,00002195
2019-06-13 06:48:25 r, 00.00m,0000563622Hz,0000000000c,0000000.000s, 027.3C,00002195
2019-06-13 06:58:25 r, 00.00m,0000563591Hz,0000000000c,0000000.000s, 027.3C,00002195
2019-06-13 07:08:25 r, 00.00m,0000563670Hz,0000000000c,0000000.000s, 027.3C,00002195
2019-06-13 07:18:25 r, 00.00m,0000563632Hz,0000000000c,0000000.000s, 028.0C,00002195
2019-06-13 07:28:25 r, 00.00m,0000563722Hz,0000000000c,0000000.000s, 028.3C,00002195
2019-06-13 07:38:25 r, 00.00m,0000563803Hz,0000000000c,0000000.000s, 028.3C,00002195
2019-06-13 07:48:25 r, 00.00m,0000563811Hz,0000000000c,0000000.000s, 029.0C,00002195
2019-06-13 07:58:25 r, 00.00m,0000563802Hz,0000000000c,0000000.000s, 029.3C,00002195
2019-06-13 08:08:25 r, 00.00m,0000563865Hz,0000000000c,0000000.000s, 029.6C,00002195
2019-06-13 08:18:25 r, 00.00m,0000563949Hz,0000000000c,0000000.000s, 030.2C,00002195
2019-06-13 08:28:25 r, 00.00m,0000563980Hz,0000000000c,0000000.000s, 030.6C,00002195
2019-06-13 08:38:26 r, 00.00m,0000563994Hz,0000000000c,0000000.000s, 030.9C,00002195
2019-06-13 08:48:26 r, 00.00m,0000564026Hz,0000000000c,0000000.000s, 031.2C,00002195
2019-06-13 08:58:25 r, 00.00m,0000564014Hz,0000000000c,0000000.000s, 031.5C,00002195
2019-06-13 09:08:26 r, 00.00m,0000564313Hz,0000000000c,0000000.000s, 033.5C,00002195
2019-06-13 09:18:26 r, 00.00m,0000564719Hz,0000000000c,0000000.000s, 036.7C,00002195
2019-06-13 09:28:26 r, 00.00m,0000564918Hz,0000000000c,0000000.000s, 039.3C,00002195
2019-06-13 09:38:26 r, 00.00m,0000564995Hz,0000000000c,0000000.000s, 040.9C,00002195
2019-06-13 09:48:26 r, 00.00m,0000565217Hz,0000000000c,0000000.000s, 042.2C,00002195
2019-06-13 09:58:26 r, 00.00m,0000565338Hz,0000000000c,0000000.000s, 043.1C,00002195
2019-06-13 10:08:26 r, 00.00m,0000565392Hz,0000000000c,0000000.000s, 044.1C,00002195
2019-06-13 10:18:26 r, 00.00m,0000565427Hz,0000000000c,0000000.000s, 045.4C,00002195
2019-06-13 10:28:26 r, 00.00m,0000565501Hz,0000000000c,0000000.000s, 046.0C,00002195
2019-06-13 10:38:26 r, 00.00m,0000565466Hz,0000000000c,0000000.000s, 047.3C,00002195
2019-06-13 10:48:26 r, 00.00m,0000565619Hz,0000000000c,0000000.000s, 047.7C,00002195
2019-06-13 10:58:26 r, 00.00m,0000565622Hz,0000000000c,0000000.000s, 048.3C,00002195
2019-06-13 11:08:26 r, 00.00m,0000565697Hz,0000000000c,0000000.000s, 048.9C,00002195
2019-06-13 11:18:26 r, 00.00m,0000565629Hz,0000000000c,0000000.000s, 048.9C,00002195
2019-06-13 11:28:26 r, 00.00m,0000565760Hz,0000000000c,0000000.000s, 049.9C,00002195
2019-06-13 11:38:26 r, 00.00m,0000565677Hz,0000000000c,0000000.000s, 050.9C,00002195
2019-06-13 11:48:26 r, 00.00m,0000565734Hz,0000000000c,0000000.000s, 050.9C,00002195
2019-06-13 11:58:26 r, 00.00m,0000565785Hz,0000000000c,0000000.000s, 051.2C,00002195
2019-06-13 12:08:26 r, 00.00m,0000565807Hz,0000000000c,0000000.000s, 051.5C,00002195
2019-06-13 12:18:26 r, 00.00m,0000565808Hz,0000000000c,0000000.000s, 052.2C,00002195
2019-06-13 12:28:26 r, 00.00m,0000565702Hz,0000000000c,0000000.000s, 051.8C,00002195
2019-06-13 12:38:26 r, 00.00m,0000565674Hz,0000000000c,0000000.000s, 052.2C,00002195
2019-06-13 12:48:26 r, 00.00m,0000565618Hz,0000000000c,0000000.000s, 051.2C,00002195
2019-06-13 12:58:26 r, 00.00m,0000565802Hz,0000000000c,0000000.000s, 051.8C,00002195
2019-06-13 13:08:26 r, 00.00m,0000565879Hz,0000000000c,0000000.000s, 054.4C,00002195
2019-06-13 13:18:26 r, 00.00m,0000565810Hz,0000000000c,0000000.000s, 054.4C,00002195
2019-06-13 13:28:26 r, 00.00m,0000565793Hz,0000000000c,0000000.000s, 054.1C,00002195
2019-06-13 13:38:26 r, 00.00m,0000565726Hz,0000000000c,0000000.000s, 053.1C,00002195
2019-06-13 13:48:26 r, 00.00m,0000565609Hz,0000000000c,0000000.000s, 052.2C,00002195
2019-06-13 13:58:26 r, 00.00m,0000565433Hz,0000000000c,0000000.000s, 049.9C,00002195
2019-06-13 14:08:26 r, 00.00m,0000565401Hz,0000000000c,0000000.000s, 048.6C,00002195
2019-06-13 14:18:26 r, 00.00m,0000565473Hz,0000000000c,0000000.000s, 049.3C,00002195
2019-06-13 14:28:26 r, 00.00m,0000565695Hz,0000000000c,0000000.000s, 051.8C,00002195
2019-06-13 14:38:26 r, 00.00m,0000565706Hz,0000000000c,0000000.000s, 052.8C,00002195
2019-06-13 14:48:26 r, 00.00m,0000565735Hz,0000000000c,0000000.000s, 052.8C,00002195
2019-06-13 14:58:26 r, 00.00m,0000565483Hz,0000000000c,0000000.000s, 050.6C,00002195
2019-06-13 15:08:26 r, 00.00m,0000565254Hz,0000000000c,0000000.000s, 048.3C,00002195
2019-06-13 15:18:26 r, 00.00m,0000565142Hz,0000000000c,0000000.000s, 046.4C,00002195
2019-06-13 15:28:26 r, 00.00m,0000565274Hz,0000000000c,0000000.000s, 047.0C,00002195
2019-06-13 15:38:26 r, 00.00m,0000565302Hz,0000000000c,0000000.000s, 048.0C,00002195
2019-06-13 15:48:26 r, 00.00m,0000565308Hz,0000000000c,0000000.000s, 047.3C,00002195
2019-06-13 15:58:26 r, 00.00m,0000565344Hz,0000000000c,0000000.000s, 047.7C,00002195
2019-06-13 16:08:26 r, 00.00m,0000565272Hz,0000000000c,0000000.000s, 047.0C,00002195
2019-06-13 16:18:26 r, 00.00m,0000565208Hz,0000000000c,0000000.000s, 046.7C,00002195
2019-06-13 16:28:26 r, 00.00m,0000565359Hz,0000000000c,0000000.000s, 048.0C,00002195
2019-06-13 16:38:26 r, 00.00m,0000565335Hz,0000000000c,0000000.000s, 048.0C,00002195
2019-06-13 16:48:26 r, 00.00m,0000565343Hz,0000000000c,0000000.000s, 048.3C,00002195
2019-06-13 16:58:26 r, 00.00m,0000565527Hz,0000000000c,0000000.000s, 049.6C,00002195
2019-06-13 17:08:26 r, 00.00m,0000565580Hz,0000000000c,0000000.000s, 050.6C,00002195
2019-06-13 17:18:26 r, 00.00m,0000565398Hz,0000000000c,0000000.000s, 049.3C,00002195
2019-06-13 17:28:26 r, 00.00m,0000565259Hz,0000000000c,0000000.000s, 047.3C,00002195
2019-06-13 17:38:26 r, 00.00m,0000565185Hz,0000000000c,0000000.000s, 046.0C,00002195
2019-06-13 17:48:26 r, 00.00m,0000565214Hz,0000000000c,0000000.000s, 046.7C,00002195
2019-06-13 17:58:26 r, 00.00m,0000565101Hz,0000000000c,0000000.000s, 046.0C,00002195
2019-06-13 18:08:26 r, 00.00m,0000565170Hz,0000000000c,0000000.000s, 046.0C,00002195
2019-06-13 18:18:26 r, 00.00m,0000565150Hz,0000000000c,0000000.000s, 045.7C,00002195
2019-06-13 18:28:26 r, 00.00m,0000565184Hz,0000000000c,0000000.000s, 046.0C,00002195
2019-06-13 18:38:26 r, 00.00m,0000565160Hz,0000000000c,0000000.000s, 046.4C,00002195
2019-06-13 18:48:26 r, 00.00m,0000565152Hz,0000000000c,0000000.000s, 045.7C,00002195
2019-06-13 18:58:26 r, 00.00m,0000565226Hz,0000000000c,0000000.000s, 046.7C,00002195
2019-06-13 19:08:26 r, 00.00m,0000565244Hz,0000000000c,0000000.000s, 046.7C,00002195
2019-06-13 19:18:26 r, 00.00m,0000565096Hz,0000000000c,0000000.000s, 045.7C,00002195
2019-06-13 19:28:26 r, 00.00m,0000565081Hz,0000000000c,0000000.000s, 044.4C,00002195
2019-06-13 19:38:26 r, 00.00m,0000565021Hz,0000000000c,0000000.000s, 043.8C,00002195
2019-06-13 19:48:26 r, 00.00m,0000564814Hz,0000000000c,0000000.000s, 042.5C,00002195
2019-06-13 19:58:26 r, 00.00m,0000564857Hz,0000000000c,0000000.000s, 041.5C,00002195
2019-06-13 20:08:26 r, 00.00m,0000564811Hz,0000000000c,0000000.000s, 041.2C,00002195
2019-06-13 20:18:26 r, 00.00m,0000564779Hz,0000000000c,0000000.000s, 041.2C,00002195
2019-06-13 20:28:26 r, 00.00m,0000564775Hz,0000000000c,0000000.000s, 040.6C,00002195
2019-06-13 20:38:26 r, 00.00m,0000477472Hz,0000000000c,0000000.000s, 039.9C,00002195
2019-06-13 20:48:26 r, 00.00m,0000564620Hz,0000000000c,0000000.000s, 039.3C,00002195
2019-06-13 20:58:26 r, 05.93m,0000377666Hz,0000000000c,0000000.000s, 039.0C,00002195
2019-06-13 21:08:26 r, 06.15m,0000308355Hz,0000000000c,0000000.000s, 038.6C,00002195
2019-06-13 21:18:26 r, 06.52m,0000219885Hz,0000000000c,0000000.000s, 038.0C,00002195
2019-06-13 21:28:26 r, 07.04m,0000135780Hz,0000000000c,0000000.000s, 037.7C,00002195
2019-06-13 21:38:26 r, 08.03m,0000054435Hz,0000000000c,0000000.000s, 037.3C,00002195
2019-06-13 21:48:26 r, 08.98m,0000022794Hz,0000000000c,0000000.000s, 037.0C,00002195
2019-06-13 21:58:26 r, 10.17m,0000007561Hz,0000000000c,0000000.000s, 036.7C,00002195
2019-06-13 22:08:26 r, 11.60m,0000002047Hz,0000000000c,0000000.000s, 036.7C,00002195
2019-06-13 22:18:26 r, 13.03m,0000000544Hz,0000000000c,0000000.000s, 036.4C,00002195
2019-06-13 22:28:26 r, 14.46m,0000000147Hz,0000000000c,0000000.000s, 036.4C,00002195
2019-06-13 22:38:26 r, 15.15m,0000000078Hz,0000005999c,0000000.013s, 036.0C,00002195
2019-06-13 22:48:26 r, 16.35m,0000000025Hz,0000018097c,0000000.039s, 036.0C,00002195
2019-06-13 22:58:26 r, 15.49m,0000000055Hz,0000008172c,0000000.018s, 036.0C,00002195
2019-06-13 23:08:26 r, 15.48m,0000000057Hz,0000008066c,0000000.018s, 035.7C,00002195
2019-06-13 23:18:26 r, 16.52m,0000000022Hz,0000021128c,0000000.046s, 035.7C,00002195
2019-06-13 23:28:26 r, 16.58m,0000000020Hz,0000022381c,0000000.049s, 035.4C,00002195
2019-06-13 23:38:26 r, 16.89m,0000000016Hz,0000029588c,0000000.064s, 035.4C,00002195
2019-06-13 23:48:26 r, 17.13m,0000000013Hz,0000037339c,0000000.081s, 035.1C,00002195
2019-06-13 23:58:26 r, 16.14m,0000000031Hz,0000014918c,0000000.032s, 035.1C,00002195
